sat.trackr.live / text

‹ back to catalog

STARLINK-34435

NORAD 64602 · 2025-137J

PAYLOAD ACTIVE UNKNOWN

§ Identity

Operator
Country
US
Launch date
2025-06-25
Launch site
AFETR
Launch vehicle
Mass (kg)
RCS (m²)

Purposes: comms

External: N2YO · Heavens-Above · Gunter

§ Orbital elements

Epoch: 2026-09-20T00:09:33.079968Z

Period
93.85 min
Inclination
53.1582°
Eccentricity
0.0002068
Mean motion
15.34397324 rev/d
Perigee alt
461.3 km
Apogee alt
464.1 km
Semi-major
6,840.8 km
B*
5.0346e-4
RAAN
149.9614°
Arg perigee
72.0542°
Mean anomaly
288.0686°
Rev number
7,052

§ Raw data

STARLINK-344351 64602U 25137J   26263.00663287  .00016670  00000+0  50346-3 0  99972 64602  53.1582 149.9614 0002068  72.0542 288.0686 15.34397324 70527

JSON: /api/v1/satellites/64602 · /tle

For live sub-satellite position, see the globe view (requires WebGL).

§ Visibility from observer

Set your observer location to see the next 7 days of passes ≥ 10°. The values pass through the URL so the page stays shareable.

No JS? Fill the form by hand. The geolocation button needs JavaScript.